Location: Airlie Beach - Cannonvale QLD, Australia
(20.2768°S, 148.7558°E)
Time: 15:16:45
(UTC+10:00)

Tiangong - Pass Details

Date: 21 May 2026
Orbit: 381 x 392 km, 41.5° (Epoch: 8 June)

Event Time Altitude Azimuth Distance (km) Brightness Sun altitude
Rises 05:18:56 0° 341° (NNW) 2,238 1.7 -16.4°
Reaches altitude 10° 05:21:31 10° 3° (N) 1,390 0.9 -15.8°
Maximum altitude 05:23:34 16° 44° (NE) 1,090 1.0 -15.3°
Drops below altitude 10° 05:25:34 10° 84° (E) 1,386 2.0 -14.9°
Sets 05:28:13 0° 107° (ESE) 2,254 2.8 -14.3°
